• In United Kingdom
  • List of Countries
  • For 7 days
  • Water Temperature
  • Satellite Maps
  • Weather Map
  • Weather Widgets
  • user-avatar
    Login

    Hourly Weather Ouahigouya

    Today, 24 September, Monday

    Time Temperature Precipitation Wind Pressure Humidity
    00:00 +32°C° 0 mm 2 mps 729 mmHg 52%
    01:00 +31°C° 0 mm 3 mps 729 mmHg 53%
    02:00 +31°C° 0 mm 3 mps 729 mmHg 55%
    03:00 +30°C° 0 mm 3 mps 728 mmHg 57%
    04:00 +30°C° 0 mm 3 mps 728 mmHg 58%
    05:00 +30°C° 0 mm 3 mps 729 mmHg 60%
    06:00 +29°C° 0 mm 3 mps 729 mmHg 62%
    07:00 +30°C° 0 mm 3 mps 730 mmHg 59%
    08:00 +33°C° 0 mm 3 mps 730 mmHg 55%
    09:00 +34°C° 0 mm 4 mps 730 mmHg 51%
    10:00 +35°C° 0 mm 3 mps 730 mmHg 47%
    11:00 +36°C° 0 mm 2 mps 730 mmHg 43%
    12:00 +38°C° 0 mm 2 mps 730 mmHg 40%
    13:00 +37°C° 0 mm 1 mps 729 mmHg 37%
    14:00 +39°C° 0 mm 1 mps 729 mmHg 34%
    15:00 +40°C° 0 mm 1 mps 728 mmHg 32%
    16:00 +39°C° 0 mm 1 mps 728 mmHg 33%
    17:00 +39°C° 0 mm 1 mps 728 mmHg 35%
    18:00 +38°C° 0 mm 2 mps 728 mmHg 36%
    19:00 +37°C° 0 mm 2 mps 728 mmHg 39%
    20:00 +36°C° 0 mm 3 mps 729 mmHg 42%
    21:00 +36°C° 0 mm 4 mps 729 mmHg 45%
    22:00 +35°C° 0 mm 4 mps 729 mmHg 47%
    23:00 +34°C° 0 mm 3 mps 729 mmHg 50%

    Tomorrow, 25 September, Tuesday

    Time Temperature Precipitation Wind Pressure Humidity
    00:00 +34°C° 0 mm 3 mps 729 mmHg 52%
    01:00 +33°C° 0 mm 3 mps 728 mmHg 54%
    02:00 +33°C° 0 mm 3 mps 728 mmHg 56%
    03:00 +31°C° 0 mm 3 mps 728 mmHg 58%
    04:00 +31°C° 0 mm 3 mps 728 mmHg 59%
    05:00 +30°C° 0 mm 2 mps 728 mmHg 61%
    06:00 +30°C° 0 mm 2 mps 729 mmHg 62%
    07:00 +31°C° 0.2 mm 3 mps 729 mmHg 59%
    08:00 +33°C° 0.2 mm 3 mps 730 mmHg 55%
    09:00 +34°C° 0.2 mm 4 mps 730 mmHg 52%
    10:00 +36°C° 0 mm 4 mps 730 mmHg 47%
    11:00 +37°C° 0 mm 4 mps 730 mmHg 42%
    12:00 +39°C° 0 mm 3 mps 729 mmHg 38%
    13:00 +39°C° 0 mm 3 mps 729 mmHg 34%
    14:00 +40°C° 0 mm 2 mps 728 mmHg 30%
    15:00 +41°C° 0 mm 1 mps 727 mmHg 26%
    16:00 +39°C° 0.3 mm 2 mps 727 mmHg 31%
    17:00 +38°C° 0.3 mm 3 mps 727 mmHg 35%
    18:00 +36°C° 0.3 mm 5 mps 727 mmHg 40%
    19:00 +35°C° 0.4 mm 4 mps 727 mmHg 43%
    20:00 +34°C° 0.4 mm 4 mps 727 mmHg 46%
    21:00 +33°C° 0.4 mm 4 mps 728 mmHg 49%
    22:00 +33°C° 0 mm 4 mps 728 mmHg 49%
    23:00 +33°C° 0 mm 3 mps 728 mmHg 49%

    Day after tomorrow, 26 September, Wednesday

    Time Temperature Precipitation Wind Pressure Humidity
    00:00 +33°C° 0 mm 3 mps 728 mmHg 49%
    01:00 +31°C° 0 mm 3 mps 728 mmHg 51%
    02:00 +31°C° 0 mm 3 mps 727 mmHg 54%
    03:00 +30°C° 0 mm 3 mps 727 mmHg 56%
    04:00 +30°C° 0 mm 3 mps 727 mmHg 59%
    05:00 +29°C° 0 mm 4 mps 728 mmHg 62%
    06:00 +29°C° 0 mm 4 mps 728 mmHg 65%
    07:00 +30°C° 0 mm 4 mps 729 mmHg 61%
    08:00 +33°C° 0 mm 5 mps 729 mmHg 57%
    09:00 +34°C° 0 mm 5 mps 730 mmHg 53%
    10:00 +35°C° 0 mm 5 mps 730 mmHg 47%
    11:00 +37°C° 0 mm 4 mps 729 mmHg 42%
    12:00 +38°C° 0 mm 4 mps 729 mmHg 37%
    13:00 +40°C° 0 mm 4 mps 728 mmHg 35%
    14:00 +39°C° 0 mm 3 mps 727 mmHg 33%
    15:00 +40°C° 0 mm 2 mps 727 mmHg 30%
    16:00 +39°C° 0 mm 2 mps 727 mmHg 31%
    17:00 +39°C° 0 mm 2 mps 727 mmHg 33%
    18:00 +38°C° 0 mm 2 mps 727 mmHg 34%
    19:00 +37°C° 0 mm 3 mps 728 mmHg 37%
    20:00 +37°C° 0 mm 3 mps 728 mmHg 39%
    21:00 +36°C° 0 mm 4 mps 729 mmHg 42%
    22:00 +35°C° 0 mm 4 mps 729 mmHg 46%
    23:00 +34°C° 0 mm 5 mps 729 mmHg 51%

    27 September, Thursday

    Time Temperature Precipitation Wind Pressure Humidity
    00:00 +33°C° 0 mm 5 mps 728 mmHg 56%
    01:00 +33°C° 0 mm 5 mps 728 mmHg 58%
    02:00 +32°C° 0 mm 4 mps 728 mmHg 60%
    03:00 +32°C° 0 mm 4 mps 727 mmHg 61%
    04:00 +30°C° 0 mm 4 mps 727 mmHg 62%
    05:00 +30°C° 0 mm 3 mps 728 mmHg 63%
    06:00 +30°C° 0 mm 3 mps 728 mmHg 65%
    07:00 +32°C° 0 mm 4 mps 728 mmHg 62%
    08:00 +32°C° 0 mm 4 mps 729 mmHg 59%
    09:00 +33°C° 0 mm 5 mps 730 mmHg 57%
    10:00 +35°C° 0 mm 5 mps 729 mmHg 52%
    11:00 +37°C° 0 mm 5 mps 729 mmHg 46%
    12:00 +38°C° 0 mm 4 mps 729 mmHg 41%
    13:00 +40°C° 0 mm 4 mps 728 mmHg 38%
    14:00 +39°C° 0 mm 3 mps 727 mmHg 36%
    15:00 +40°C° 0 mm 2 mps 726 mmHg 33%
    16:00 +39°C° 0 mm 2 mps 726 mmHg 34%
    17:00 +39°C° 0 mm 2 mps 726 mmHg 35%
    18:00 +38°C° 0 mm 2 mps 726 mmHg 37%
    19:00 +37°C° 0.3 mm 2 mps 727 mmHg 39%
    20:00 +36°C° 0.3 mm 3 mps 727 mmHg 42%
    21:00 +36°C° 0.3 mm 3 mps 728 mmHg 45%
    22:00 +34°C° 1.9 mm 3 mps 728 mmHg 50%
    23:00 +33°C° 1.9 mm 3 mps 728 mmHg 55%

    28 September, Friday

    Time Temperature Precipitation Wind Pressure Humidity
    00:00 +31°C° 1.9 mm 2 mps 728 mmHg 60%
    01:00 +32°C° 1.1 mm 4 mps 728 mmHg 63%
    02:00 +30°C° 1.1 mm 5 mps 728 mmHg 66%
    03:00 +29°C° 1.1 mm 7 mps 728 mmHg 69%
    04:00 +29°C° 0.5 mm 6 mps 728 mmHg 70%
    05:00 +29°C° 0.5 mm 5 mps 728 mmHg 71%
    06:00 +29°C° 0.5 mm 4 mps 729 mmHg 72%
    07:00 +29°C° 0.1 mm 5 mps 729 mmHg 68%
    08:00 +30°C° 0.1 mm 5 mps 730 mmHg 64%
    09:00 +32°C° 0.1 mm 5 mps 730 mmHg 60%
    10:00 +33°C° 0 mm 5 mps 729 mmHg 53%
    11:00 +35°C° 0 mm 5 mps 729 mmHg 46%
    12:00 +37°C° 0 mm 4 mps 728 mmHg 40%
    13:00 +37°C° 0 mm 4 mps 728 mmHg 38%
    14:00 +38°C° 0 mm 4 mps 727 mmHg 35%
    15:00 +38°C° 0 mm 3 mps 727 mmHg 33%
    16:00 +37°C° 0 mm 3 mps 727 mmHg 36%
    17:00 +37°C° 0 mm 3 mps 727 mmHg 39%
    18:00 +36°C° 0 mm 2 mps 728 mmHg 42%
    19:00 +35°C° 0 mm 2 mps 728 mmHg 43%
    20:00 +35°C° 0 mm 2 mps 728 mmHg 45%
    21:00 +34°C° 0 mm 2 mps 729 mmHg 46%
    22:00 +34°C° 0 mm 3 mps 728 mmHg 48%
    23:00 +33°C° 0 mm 3 mps 728 mmHg 49%

    29 September, Saturday

    Time Temperature Precipitation Wind Pressure Humidity
    00:00 +33°C° 0 mm 3 mps 728 mmHg 51%
    01:00 +31°C° 0 mm 3 mps 728 mmHg 54%
    02:00 +31°C° 0 mm 3 mps 728 mmHg 56%
    03:00 +30°C° 0 mm 3 mps 727 mmHg 59%
    04:00 +30°C° 0 mm 3 mps 728 mmHg 61%
    05:00 +29°C° 0 mm 3 mps 728 mmHg 63%
    06:00 +29°C° 0 mm 3 mps 729 mmHg 65%
    07:00 +30°C° 0 mm 3 mps 729 mmHg 62%
    08:00 +32°C° 0 mm 4 mps 730 mmHg 58%
    09:00 +34°C° 0 mm 4 mps 730 mmHg 54%
    10:00 +35°C° 0 mm 4 mps 730 mmHg 50%
    11:00 +36°C° 0 mm 3 mps 729 mmHg 46%
    12:00 +37°C° 0 mm 3 mps 729 mmHg 41%
    13:00 +38°C° 0 mm 2 mps 728 mmHg 39%
    14:00 +38°C° 0 mm 2 mps 728 mmHg 37%
    15:00 +39°C° 0 mm 2 mps 727 mmHg 35%
    16:00 +38°C° 0 mm 2 mps 727 mmHg 37%
    17:00 +38°C° 0 mm 2 mps 727 mmHg 39%
    18:00 +37°C° 0 mm 2 mps 727 mmHg 41%
    19:00 +36°C° 0 mm 2 mps 728 mmHg 43%
    20:00 +36°C° 0 mm 2 mps 728 mmHg 45%
    21:00 +35°C° 0 mm 3 mps 728 mmHg 47%
    22:00 +35°C° 0 mm 3 mps 728 mmHg 49%
    23:00 +34°C° 0 mm 3 mps 728 mmHg 52%
    Show more